Weather History for Big Bear City, CA

Change the Weather History Date:

Sunday, September 23, 2012

  Actual Average (KBUO) Record (KBUO)
Temperature  
Mean Temperature 58 °F -  
Max Temperature 71 °F 81 °F 95 °F (1997)
Min Temperature 44 °F 56 °F 53 °F (2000)
Degree Days  
Heating Degree Days 8    
Growing Degree Days 8 (Base 50)    
Moisture  
Dew Point 33 °F    
Average Humidity 43    
Maximum Humidity 67    
Minimum Humidity 19    
Precipitation  
Precipitation 0.00 in - - ()
Sea Level Pressure  
Sea Level Pressure 30.31 in    
Wind  
Wind Speed 3 mph (WSW)    
Max Wind Speed 13 mph    
Max Gust Speed 22 mph    
Visibility 10 miles    
Events      
Averages and records for this station are not official NWS values.
T = Trace of Precipitation, MM = Missing Value Source: NWS Daily Summary

Daily Weather History Graph

Daily Weather History Graph

Search for Another Location

Airport:

Trip Planner

Search our weather history database for the weather conditions in past years. The results will help you decide how hot, cold, wet, or windy it might be!

Date:

Astronomy

Sep. 23, 2012 Rise Set
Actual Time 6:36 AM PDT 6:41 PM PDT
Civil Twilight 6:11 AM PDT 7:06 PM PDT
Nautical Twilight 5:42 AM PDT 7:36 PM PDT
Astronomical Twilight 5:12 AM PDT 8:05 PM PDT
Moon 2:33 PM PDT (9/23) 12:07 AM PDT (9/23)
Length of Visible Light 12h 55m
Length of Day
12h 05m
First Quarter, 61% of the Moon is Illuminated
Sep 23
First Quarter
Sep 29
Full
Oct 8
Last Quarter
Oct 15
New
Oct 21
First Quarter

Hourly Weather History & Observations

Time (PDT) Temp. Dew Point Humidity Pressure Visibility Wind Dir Wind Speed Gust Speed Precip Events Conditions
12:15 AM 48.2 °F 33.8 °F 58% 30.29 in 10.0 mi Calm Calm - N/A   Clear
12:35 AM 48.2 °F 32.0 °F 54% 30.29 in 10.0 mi Calm Calm - N/A   Clear
12:55 AM 48.2 °F 33.8 °F 58% 30.29 in 10.0 mi WSW 3.5 mph - N/A   Clear
1:15 AM 50.0 °F 35.6 °F 58% 30.29 in 10.0 mi Calm Calm - N/A   Scattered Clouds
1:35 AM 48.2 °F 37.4 °F 66% 30.28 in 10.0 mi WSW 3.5 mph - N/A   Clear
1:55 AM 48.2 °F 35.6 °F 62% 30.28 in 10.0 mi Calm Calm - N/A   Clear
2:15 AM 46.4 °F 33.8 °F 62% 30.28 in 10.0 mi Calm Calm - N/A   Clear
2:35 AM 46.4 °F 33.8 °F 62% 30.28 in 10.0 mi Calm Calm - N/A   Clear
2:55 AM 46.4 °F 33.8 °F 62% 30.28 in 10.0 mi Calm Calm - N/A   Scattered Clouds
3:15 AM 46.4 °F 32.0 °F 57% 30.27 in 10.0 mi Calm Calm - N/A   Clear
3:35 AM 46.4 °F 32.0 °F 57% 30.27 in 10.0 mi Calm Calm - N/A   Clear
3:55 AM 44.6 °F 32.0 °F 61% 30.27 in 10.0 mi Calm Calm - N/A   Clear
4:15 AM 44.6 °F 32.0 °F 61% 30.27 in 10.0 mi Calm Calm - N/A   Clear
4:35 AM 44.6 °F 32.0 °F 61% 30.28 in 10.0 mi Calm Calm - N/A   Scattered Clouds
4:55 AM 44.6 °F 32.0 °F 61% 30.28 in 10.0 mi Calm Calm - N/A   Scattered Clouds
5:15 AM 44.6 °F 33.8 °F 66% 30.28 in 10.0 mi Calm Calm - N/A   Scattered Clouds
5:35 AM 46.4 °F 35.6 °F 66% 30.29 in 10.0 mi Calm Calm - N/A   Scattered Clouds
5:55 AM 46.4 °F 35.6 °F 66% 30.29 in 10.0 mi Calm Calm - N/A   Scattered Clouds
6:35 AM 44.6 °F 33.8 °F 66% 30.30 in 10.0 mi Calm Calm - N/A   Clear
6:55 AM 44.6 °F 33.8 °F 66% 30.31 in 7.0 mi Calm Calm - N/A   Clear
7:15 AM 44.6 °F 33.8 °F 66% 30.31 in 10.0 mi Calm Calm - N/A   Clear
7:35 AM 46.4 °F 33.8 °F 62% 30.32 in 10.0 mi Calm Calm - N/A   Clear
7:55 AM 48.2 °F 37.4 °F 66% 30.32 in 10.0 mi Calm Calm - N/A   Clear
8:15 AM 50.0 °F 37.4 °F 62% 30.33 in 10.0 mi Calm Calm - N/A   Clear
8:35 AM 51.8 °F 41.0 °F 67% 30.33 in 10.0 mi Calm Calm - N/A   Clear
8:55 AM 55.4 °F 42.8 °F 63% 30.33 in 10.0 mi Calm Calm - N/A   Clear
9:15 AM 59.0 °F 42.8 °F 55% 30.34 in 10.0 mi Calm Calm - N/A   Clear
9:35 AM 62.6 °F 32.0 °F 32% 30.34 in 10.0 mi Calm Calm - N/A   Clear
9:55 AM 64.4 °F 32.0 °F 30% 30.34 in 10.0 mi West 4.6 mph - N/A   Clear
10:15 AM 66.2 °F 32.0 °F 28% 30.34 in 10.0 mi West 6.9 mph - N/A   Clear
10:35 AM 68.0 °F 32.0 °F 26% 30.34 in 10.0 mi West 9.2 mph - N/A   Scattered Clouds
10:55 AM 68.0 °F 32.0 °F 26% 30.34 in 10.0 mi West 9.2 mph - N/A   Scattered Clouds
11:15 AM 69.8 °F 32.0 °F 25% 30.34 in 10.0 mi WSW 10.4 mph - N/A   Scattered Clouds
11:35 AM 69.8 °F 32.0 °F 25% 30.34 in 10.0 mi West 11.5 mph 18.4 mph N/A   Scattered Clouds
11:55 AM 69.8 °F 32.0 °F 25% 30.34 in 10.0 mi West 10.4 mph - N/A   Clear
12:15 PM 69.8 °F 30.2 °F 23% 30.33 in 10.0 mi SW 5.8 mph 18.4 mph N/A   Clear
12:35 PM 71.6 °F 30.2 °F 22% 30.33 in 10.0 mi WSW 5.8 mph - N/A   Clear
12:55 PM 71.6 °F 30.2 °F 22% 30.33 in 10.0 mi SW 8.1 mph 16.1 mph N/A   Clear
1:15 PM 71.6 °F 30.2 °F 22% 30.32 in 10.0 mi SW 8.1 mph - N/A   Clear
1:35 PM 71.6 °F 30.2 °F 22% 30.31 in 10.0 mi West 11.5 mph 20.7 mph N/A   Clear
1:55 PM 71.6 °F 30.2 °F 22% 30.31 in 10.0 mi SW 11.5 mph 17.3 mph N/A   Clear
2:15 PM 71.6 °F 28.4 °F 20% 30.31 in 10.0 mi SW 9.2 mph - N/A   Clear
2:35 PM 71.6 °F 28.4 °F 20% 30.31 in 10.0 mi SSW 5.8 mph 20.7 mph N/A   Clear
2:55 PM 71.6 °F 28.4 °F 20% 30.31 in 10.0 mi WSW 10.4 mph 18.4 mph N/A   Clear
3:15 PM 71.6 °F 26.6 °F 19% 30.31 in 10.0 mi WSW 12.7 mph 19.6 mph N/A   Clear
3:35 PM 69.8 °F 26.6 °F 20% 30.31 in 10.0 mi SW 9.2 mph 21.9 mph N/A   Clear
3:55 PM 69.8 °F 28.4 °F 21% 30.31 in 10.0 mi West 10.4 mph 17.3 mph N/A   Clear
4:15 PM 69.8 °F 26.6 °F 20% 30.31 in 10.0 mi SSW 4.6 mph - N/A   Clear
4:35 PM 69.8 °F 28.4 °F 21% 30.31 in 10.0 mi West 9.2 mph - N/A   Clear
4:55 PM 69.8 °F 30.2 °F 23% 30.31 in 10.0 mi WSW 11.5 mph 17.3 mph N/A   Clear
5:15 PM 68.0 °F 30.2 °F 24% 30.30 in 10.0 mi SW 10.4 mph 16.1 mph N/A   Clear
5:35 PM 68.0 °F 30.2 °F 24% 30.30 in 10.0 mi SW 8.1 mph - N/A   Clear
5:55 PM 66.2 °F 32.0 °F 28% 30.30 in 10.0 mi WSW 5.8 mph 16.1 mph N/A   Clear
6:15 PM 64.4 °F 32.0 °F 30% 30.30 in 10.0 mi WSW 9.2 mph - N/A   Clear
6:35 PM 64.4 °F 33.8 °F 32% 30.30 in 10.0 mi WSW 4.6 mph - N/A   Clear
6:55 PM 62.6 °F 35.6 °F 37% 30.30 in 10.0 mi SW 4.6 mph - N/A   Clear
7:15 PM 60.8 °F 35.6 °F 39% 30.30 in 10.0 mi SW 3.5 mph - N/A   Clear
7:35 PM 59.0 °F 35.6 °F 42% 30.31 in 10.0 mi SW 5.8 mph - N/A   Clear
7:55 PM 59.0 °F 37.4 °F 45% 30.31 in 10.0 mi SW 4.6 mph - N/A   Clear
8:15 PM 59.0 °F 37.4 °F 45% 30.31 in 10.0 mi SW 4.6 mph - N/A   Clear
8:35 PM 59.0 °F 35.6 °F 42% 30.31 in 10.0 mi SW 5.8 mph - N/A   Clear
8:55 PM 59.0 °F 32.0 °F 36% 30.31 in 10.0 mi SW 4.6 mph - N/A   Clear
9:15 PM 55.4 °F 35.6 °F 47% 30.31 in 10.0 mi WSW 4.6 mph - N/A   Clear
9:35 PM 55.4 °F 33.8 °F 44% 30.31 in 10.0 mi West 4.6 mph - N/A   Clear
9:55 PM 55.4 °F 32.0 °F 41% 30.31 in 10.0 mi Calm Calm - N/A   Clear
10:15 PM 53.6 °F 33.8 °F 47% 30.31 in 10.0 mi West 3.5 mph - N/A   Clear
10:35 PM 51.8 °F 32.0 °F 47% 30.31 in 10.0 mi Calm Calm - N/A   Clear
10:55 PM 51.8 °F 32.0 °F 47% 30.31 in 10.0 mi Calm Calm - N/A   Clear
11:15 PM 50.0 °F 32.0 °F 50% 30.30 in 10.0 mi Calm Calm - N/A   Clear
11:35 PM 48.2 °F 33.8 °F 58% 30.29 in 10.0 mi Calm Calm - N/A   Clear
11:55 PM 51.8 °F 37.4 °F 58% 30.28 in 10.0 mi WSW 6.9 mph - N/A   Clear